Time,TemperatureF,DewpointF,PressureIn,WindDirection,WindDirectionDegrees,WindSpeedMPH,WindSpeedGustMPH,Humidity,HourlyPrecipIn,Conditions,Clouds,dailyrainin,SoftwareType,DateUTC
2013-07-25 00:00:00,52.0,49.5,30.01,NNW,344,0.0,11.0,91,0.00,,,0.00,Wunderground v.1.15,2013-07-25 04:00:00,
2013-07-25 00:05:00,51.8,49.3,30.01,NNW,344,0.0,11.0,91,0.00,,,0.00,Wunderground v.1.15,2013-07-25 04:05:00,
2013-07-25 00:10:00,51.7,49.2,30.02,NNW,344,0.0,11.0,91,0.00,,,0.00,Wunderground v.1.15,2013-07-25 04:10:00,
2013-07-25 00:15:00,51.7,49.2,30.02,NNW,344,0.0,11.0,91,0.00,,,0.00,Wunderground v.1.15,2013-07-25 04:15:00,
2013-07-25 00:20:00,51.6,49.1,30.02,NNW,344,0.0,11.0,91,0.00,,,0.00,Wunderground v.1.15,2013-07-25 04:20:00,
2013-07-25 07:25:00,50.3,49.2,30.06,NNW,344,0.0,0.0,96,0.00,,,0.00,Wunderground v.1.15,2013-07-25 11:25:00,
2013-07-25 07:35:00,50.7,49.6,30.06,NNW,344,0.0,0.0,96,0.00,,,0.00,Wunderground v.1.15,2013-07-25 11:35:00,
2013-07-25 07:40:00,50.9,49.8,30.07,NNW,344,0.0,0.0,96,0.00,,,0.00,Wunderground v.1.15,2013-07-25 11:40:00,
2013-07-25 07:45:00,51.4,50.6,30.07,NNW,344,0.0,0.0,97,0.00,,,0.00,Wunderground v.1.15,2013-07-25 11:45:00,
2013-07-25 07:50:00,52.4,51.6,30.07,NNW,344,0.0,0.0,97,0.00,,,0.00,Wunderground v.1.15,2013-07-25 11:50:00,
2013-07-25 08:00:00,53.3,52.5,30.07,NNW,344,0.0,0.0,97,0.00,,,0.00,Wunderground v.1.15,2013-07-25 12:00:00,
2013-07-25 08:05:00,53.9,53.1,30.07,NNW,344,0.0,0.0,97,0.00,,,0.00,Wunderground v.1.15,2013-07-25 12:05:00,
2013-07-25 08:10:00,54.6,53.8,30.07,NNW,344,0.0,0.0,97,0.00,,,0.00,Wunderground v.1.15,2013-07-25 12:10:00,
2013-07-25 08:15:00,55.3,54.5,30.07,NNW,344,0.0,0.0,97,0.00,,,0.00,Wunderground v.1.15,2013-07-25 12:15:00,
2013-07-25 08:20:00,55.8,55.0,30.07,NNW,344,0.0,0.0,97,0.00,,,0.01,Wunderground v.1.15,2013-07-25 12:20:00,
2013-07-25 08:25:00,55.8,55.0,30.07,NNW,344,0.0,0.0,97,0.00,,,0.01,Wunderground v.1.15,2013-07-25 12:25:00,
2013-07-25 08:30:00,56.4,55.6,30.07,NNW,344,0.0,0.0,97,0.00,,,0.01,Wunderground v.1.15,2013-07-25 12:30:00,
2013-07-25 08:40:00,57.6,56.2,30.07,NNW,344,0.0,0.0,95,0.00,,,0.01,Wunderground v.1.15,2013-07-25 12:40:00,
2013-07-25 08:50:00,58.7,56.7,30.08,NNW,344,0.0,0.0,93,0.00,,,0.01,Wunderground v.1.15,2013-07-25 12:50:00,
2013-07-25 08:55:00,59.6,57.6,30.07,NNW,344,0.0,0.0,93,0.00,,,0.01,Wunderground v.1.15,2013-07-25 12:55:00,
2013-07-25 09:00:00,60.4,57.5,30.07,NNW,344,0.0,0.0,90,0.00,,,0.01,Wunderground v.1.15,2013-07-25 13:00:00,
2013-07-25 09:05:00,60.9,57.3,30.07,NNW,344,0.0,0.0,88,0.00,,,0.01,Wunderground v.1.15,2013-07-25 13:05:00,
2013-07-25 09:10:00,61.8,57.2,30.08,NNW,344,0.0,0.0,85,0.00,,,0.01,Wunderground v.1.15,2013-07-25 13:10:00,
2013-07-25 09:20:00,62.7,56.1,30.08,NNW,344,0.0,0.0,79,0.00,,,0.01,Wunderground v.1.15,2013-07-25 13:20:00,
2013-07-25 09:25:00,63.4,56.8,30.08,NNW,344,0.0,0.0,79,0.00,,,0.01,Wunderground v.1.15,2013-07-25 13:25:00,
2013-07-25 09:30:00,63.9,56.9,30.08,NNW,344,0.0,0.0,78,0.00,,,0.01,Wunderground v.1.15,2013-07-25 13:30:00,
2013-07-25 09:35:00,64.4,57.0,30.08,NNW,344,0.0,0.0,77,0.00,,,0.01,Wunderground v.1.15,2013-07-25 13:35:00,
2013-07-25 09:40:00,64.7,57.3,30.09,NNW,344,0.0,0.0,77,0.00,,,0.01,Wunderground v.1.15,2013-07-25 13:40:00,
2013-07-25 09:45:00,65.0,56.9,30.09,NNW,344,0.0,0.0,75,0.00,,,0.01,Wunderground v.1.15,2013-07-25 13:45:00,
2013-07-25 09:55:00,65.6,55.9,30.09,NNW,344,0.0,0.0,71,0.00,,,0.01,Wunderground v.1.15,2013-07-25 13:55:00,
2013-07-25 10:05:00,66.6,56.5,30.09,NNW,344,0.0,3.0,70,0.00,,,0.01,Wunderground v.1.15,2013-07-25 14:05:00,
2013-07-25 10:10:00,66.8,55.9,30.09,NNW,344,0.0,0.0,68,0.00,,,0.01,Wunderground v.1.15,2013-07-25 14:10:00,
2013-07-25 10:15:00,67.2,56.7,30.09,NNW,344,0.0,0.0,69,0.00,,,0.01,Wunderground v.1.15,2013-07-25 14:15:00,
2013-07-25 10:20:00,66.9,56.4,30.10,NNW,344,0.0,0.0,69,0.00,,,0.01,Wunderground v.1.15,2013-07-25 14:20:00,
2013-07-25 10:25:00,67.7,57.2,30.10,North,350,0.0,3.0,69,0.00,,,0.01,Wunderground v.1.15,2013-07-25 14:25:00,
2013-07-25 10:30:00,68.1,55.9,30.10,North,350,1.0,1.0,65,0.00,,,0.01,Wunderground v.1.15,2013-07-25 14:30:00,
2013-07-25 10:35:00,68.2,56.0,30.10,North,350,0.0,1.0,65,0.00,,,0.01,Wunderground v.1.15,2013-07-25 14:35:00,
2013-07-25 10:45:00,68.9,56.6,30.09,SSE,159,1.0,1.0,65,0.00,,,0.01,Wunderground v.1.15,2013-07-25 14:45:00,
2013-07-25 10:50:00,68.7,57.3,30.09,SSE,160,1.0,1.0,67,0.00,,,0.01,Wunderground v.1.15,2013-07-25 14:50:00,
2013-07-25 10:55:00,68.7,55.6,30.09,SSW,213,1.0,1.0,63,0.00,,,0.01,Wunderground v.1.15,2013-07-25 14:55:00,
2013-07-25 11:00:00,69.0,57.6,30.09,WSW,256,0.0,0.0,67,0.00,,,0.01,Wunderground v.1.15,2013-07-25 15:00:00,
2013-07-25 11:05:00,69.4,56.3,30.09,NNW,336,0.0,0.0,63,0.00,,,0.01,Wunderground v.1.15,2013-07-25 15:05:00,
2013-07-25 11:10:00,69.5,57.2,30.09,NNW,336,0.0,1.0,65,0.00,,,0.01,Wunderground v.1.15,2013-07-25 15:10:00,
2013-07-25 11:15:00,69.4,54.9,30.09,NNW,329,0.0,3.0,60,0.00,,,0.01,Wunderground v.1.15,2013-07-25 15:15:00,
2013-07-25 11:25:00,69.3,55.3,30.09,North,360,1.0,2.0,61,0.00,,,0.01,Wunderground v.1.15,2013-07-25 15:25:00,
2013-07-25 11:35:00,68.4,55.3,30.09,North,355,0.0,0.0,63,0.00,,,0.01,Wunderground v.1.15,2013-07-25 15:35:00,
2013-07-25 11:40:00,68.3,56.5,30.09,North,355,0.0,0.0,66,0.00,,,0.01,Wunderground v.1.15,2013-07-25 15:40:00,
2013-07-25 11:45:00,68.7,55.6,30.09,North,355,0.0,0.0,63,0.00,,,0.01,Wunderground v.1.15,2013-07-25 15:45:00,
2013-07-25 11:50:00,69.2,56.5,30.09,NNW,336,0.0,0.0,64,0.00,,,0.01,Wunderground v.1.15,2013-07-25 15:50:00,
2013-07-25 12:00:00,70.5,55.5,30.09,NNW,340,1.0,4.0,59,0.00,,,0.01,Wunderground v.1.15,2013-07-25 16:00:00,
2013-07-25 12:05:00,70.3,54.3,30.09,NNE,22,1.0,4.0,57,0.00,,,0.01,Wunderground v.1.15,2013-07-25 16:05:00,
2013-07-25 12:10:00,70.2,56.1,30.09,NNW,346,1.0,2.0,61,0.00,,,0.01,Wunderground v.1.15,2013-07-25 16:10:00,
2013-07-25 12:15:00,70.4,55.8,30.09,NNW,331,1.0,2.0,60,0.00,,,0.01,Wunderground v.1.15,2013-07-25 16:15:00,
2013-07-25 12:20:00,70.8,57.1,30.09,NNW,335,1.0,1.0,62,0.00,,,0.01,Wunderground v.1.15,2013-07-25 16:20:00,
2013-07-25 12:25:00,70.9,54.9,30.09,North,355,1.0,1.0,57,0.00,,,0.01,Wunderground v.1.15,2013-07-25 16:25:00,
2013-07-25 12:30:00,70.6,56.5,30.08,North,355,1.0,1.0,61,0.00,,,0.01,Wunderground v.1.15,2013-07-25 16:30:00,
2013-07-25 12:35:00,70.5,55.9,30.08,North,355,1.0,3.0,60,0.00,,,0.01,Wunderground v.1.15,2013-07-25 16:35:00,
2013-07-25 12:45:00,71.1,57.0,30.08,NNE,13,1.0,4.0,61,0.00,,,0.01,Wunderground v.1.15,2013-07-25 16:45:00,
2013-07-25 12:50:00,71.0,55.5,30.08,NNW,338,3.0,3.0,58,0.00,,,0.01,Wunderground v.1.15,2013-07-25 16:50:00,
2013-07-25 13:00:00,70.9,54.9,30.08,North,355,1.0,3.0,57,0.00,,,0.01,Wunderground v.1.15,2013-07-25 17:00:00,
2013-07-25 13:05:00,70.6,55.6,30.08,North,5,1.0,3.0,59,0.00,,,0.01,Wunderground v.1.15,2013-07-25 17:05:00,
2013-07-25 13:10:00,71.0,55.5,30.08,North,355,2.0,4.0,58,0.00,,,0.01,Wunderground v.1.15,2013-07-25 17:10:00,
2013-07-25 13:20:00,71.7,59.3,30.08,North,360,3.0,6.0,65,0.00,,,0.01,Wunderground v.1.15,2013-07-25 17:20:00,
2013-07-25 13:25:00,71.5,56.9,30.08,NNE,16,3.0,6.0,60,0.00,,,0.01,Wunderground v.1.15,2013-07-25 17:25:00,
2013-07-25 13:30:00,70.6,55.6,30.08,North,360,4.0,5.0,59,0.00,,,0.01,Wunderground v.1.15,2013-07-25 17:30:00,
2013-07-25 13:35:00,70.7,57.0,30.08,NNW,335,3.0,5.0,62,0.00,,,0.01,Wunderground v.1.15,2013-07-25 17:35:00,
2013-07-25 13:40:00,71.7,57.1,30.08,NNW,329,2.0,2.0,60,0.00,,,0.01,Wunderground v.1.15,2013-07-25 17:40:00,
2013-07-25 13:45:00,72.2,57.5,30.08,North,350,2.0,2.0,60,0.00,,,0.01,Wunderground v.1.15,2013-07-25 17:45:00,
2013-07-25 13:50:00,71.7,57.5,30.08,NNE,30,2.0,2.0,61,0.00,,,0.01,Wunderground v.1.15,2013-07-25 17:50:00,
2013-07-25 14:00:00,71.6,57.4,30.07,NNW,348,3.0,3.0,61,0.00,,,0.01,Wunderground v.1.15,2013-07-25 18:00:00,
2013-07-25 14:05:00,71.6,57.0,30.07,North,351,3.0,4.0,60,0.00,,,0.01,Wunderground v.1.15,2013-07-25 18:05:00,
2013-07-25 14:10:00,72.0,56.4,30.07,NNW,336,3.0,3.0,58,0.00,,,0.01,Wunderground v.1.15,2013-07-25 18:10:00,
2013-07-25 14:15:00,71.7,56.6,30.07,NNW,334,3.0,4.0,59,0.00,,,0.01,Wunderground v.1.15,2013-07-25 18:15:00,
2013-07-25 14:20:00,71.7,56.6,30.07,NNW,329,2.0,2.0,59,0.00,,,0.01,Wunderground v.1.15,2013-07-25 18:20:00,
2013-07-25 14:25:00,71.9,55.8,30.07,NNW,333,1.0,2.0,57,0.00,,,0.01,Wunderground v.1.15,2013-07-25 18:25:00,
2013-07-25 14:30:00,72.1,57.9,30.07,North,351,1.0,1.0,61,0.00,,,0.01,Wunderground v.1.15,2013-07-25 18:30:00,
2013-07-25 14:40:00,72.7,56.1,30.07,NE,40,2.0,2.0,56,0.00,,,0.01,Wunderground v.1.15,2013-07-25 18:40:00,
2013-07-25 14:45:00,72.6,56.5,30.08,North,355,2.0,2.0,57,0.00,,,0.01,Wunderground v.1.15,2013-07-25 18:45:00,
2013-07-25 14:50:00,71.5,58.2,30.07,SSE,156,1.0,1.0,63,0.00,,,0.01,Wunderground v.1.15,2013-07-25 18:50:00,
2013-07-25 14:55:00,72.0,55.9,30.07,North,10,1.0,1.0,57,0.00,,,0.01,Wunderground v.1.15,2013-07-25 18:55:00,
2013-07-25 15:00:00,72.3,54.2,30.07,NNW,348,2.0,5.0,53,0.00,,,0.01,Wunderground v.1.15,2013-07-25 19:00:00,
2013-07-25 15:05:00,71.6,54.6,30.08,NNW,347,3.0,5.0,55,0.00,,,0.01,Wunderground v.1.15,2013-07-25 19:05:00,
2013-07-25 15:15:00,71.9,54.9,30.07,NNW,333,2.0,6.0,55,0.00,,,0.01,Wunderground v.1.15,2013-07-25 19:15:00,
2013-07-25 15:25:00,72.2,55.1,30.08,NW,323,2.0,2.0,55,0.00,,,0.01,Wunderground v.1.15,2013-07-25 19:25:00,
2013-07-25 15:30:00,72.4,55.3,30.08,NE,35,2.0,2.0,55,0.00,,,0.01,Wunderground v.1.15,2013-07-25 19:30:00,
2013-07-25 15:35:00,72.6,52.9,30.07,North,10,2.0,7.0,50,0.00,,,0.01,Wunderground v.1.15,2013-07-25 19:35:00,
2013-07-25 15:40:00,72.4,53.2,30.07,NNW,339,4.0,4.0,51,0.00,,,0.01,Wunderground v.1.15,2013-07-25 19:40:00,
2013-07-25 15:45:00,72.5,53.9,30.07,NNW,348,3.0,5.0,52,0.00,,,0.01,Wunderground v.1.15,2013-07-25 19:45:00,
2013-07-25 15:50:00,72.5,53.3,30.07,NNW,347,3.0,5.0,51,0.00,,,0.01,Wunderground v.1.15,2013-07-25 19:50:00,
2013-07-25 15:55:00,72.1,51.9,30.07,NW,313,3.0,8.0,49,0.00,,,0.01,Wunderground v.1.15,2013-07-25 19:55:00,
2013-07-25 16:00:00,72.5,54.9,30.07,NNW,338,2.0,2.0,54,0.00,,,0.01,Wunderground v.1.15,2013-07-25 20:00:00,
2013-07-25 16:10:00,72.3,52.6,30.07,North,360,1.0,3.0,50,0.00,,,0.01,Wunderground v.1.15,2013-07-25 20:10:00,
2013-07-25 16:15:00,72.0,52.3,30.07,NNW,336,3.0,3.0,50,0.00,,,0.01,Wunderground v.1.15,2013-07-25 20:15:00,
2013-07-25 16:25:00,73.0,52.7,30.07,NNW,346,2.0,5.0,49,0.00,,,0.01,Wunderground v.1.15,2013-07-25 20:25:00,
2013-07-25 16:30:00,72.5,51.1,30.07,NNE,15,3.0,3.0,47,0.00,,,0.01,Wunderground v.1.15,2013-07-25 20:30:00,
2013-07-25 16:35:00,72.4,52.7,30.06,North,5,2.0,4.0,50,0.00,,,0.01,Wunderground v.1.15,2013-07-25 20:35:00,
2013-07-25 16:40:00,73.0,51.6,30.06,North,360,3.0,4.0,47,0.00,,,0.01,Wunderground v.1.15,2013-07-25 20:40:00,
2013-07-25 16:50:00,72.2,50.8,30.06,North,355,4.0,4.0,47,0.00,,,0.01,Wunderground v.1.15,2013-07-25 20:50:00,
2013-07-25 16:55:00,72.1,51.9,30.06,North,355,4.0,4.0,49,0.00,,,0.01,Wunderground v.1.15,2013-07-25 20:55:00,
2013-07-25 17:00:00,72.2,50.8,30.06,NNW,336,4.0,4.0,47,0.00,,,0.01,Wunderground v.1.15,2013-07-25 21:00:00,
2013-07-25 17:10:00,72.3,52.1,30.06,NNW,344,1.0,1.0,49,0.00,,,0.01,Wunderground v.1.15,2013-07-25 21:10:00,
2013-07-25 17:15:00,72.4,51.6,30.07,NNW,338,2.0,4.0,48,0.00,,,0.01,Wunderground v.1.15,2013-07-25 21:15:00,
2013-07-25 17:20:00,72.1,51.3,30.07,North,5,3.0,3.0,48,0.00,,,0.01,Wunderground v.1.15,2013-07-25 21:20:00,
2013-07-25 17:25:00,71.9,51.1,30.07,ESE,107,2.0,3.0,48,0.00,,,0.01,Wunderground v.1.15,2013-07-25 21:25:00,
2013-07-25 17:30:00,72.0,51.8,30.07,NNW,341,2.0,4.0,49,0.00,,,0.01,Wunderground v.1.15,2013-07-25 21:30:00,
2013-07-25 17:35:00,72.2,52.0,30.07,North,355,3.0,4.0,49,0.00,,,0.01,Wunderground v.1.15,2013-07-25 21:35:00,
2013-07-25 17:40:00,72.0,51.8,30.07,North,360,2.0,2.0,49,0.00,,,0.01,Wunderground v.1.15,2013-07-25 21:40:00,
2013-07-25 17:50:00,71.4,50.7,30.07,NNE,19,3.0,4.0,48,0.00,,,0.01,Wunderground v.1.15,2013-07-25 21:50:00,
2013-07-25 18:00:00,71.1,49.8,30.06,North,5,3.0,3.0,47,0.00,,,0.01,Wunderground v.1.15,2013-07-25 22:00:00,
2013-07-25 18:05:00,71.2,50.5,30.06,North,355,3.0,4.0,48,0.00,,,0.01,Wunderground v.1.15,2013-07-25 22:05:00,
2013-07-25 18:10:00,71.3,49.4,30.06,ENE,64,2.0,2.0,46,0.00,,,0.01,Wunderground v.1.15,2013-07-25 22:10:00,
2013-07-25 18:15:00,71.2,49.9,30.06,North,5,2.0,3.0,47,0.00,,,0.01,Wunderground v.1.15,2013-07-25 22:15:00,
2013-07-25 18:20:00,71.0,50.9,30.06,North,5,2.0,3.0,49,0.00,,,0.01,Wunderground v.1.15,2013-07-25 22:20:00,
2013-07-25 18:30:00,71.0,50.3,30.06,NNW,337,2.0,3.0,48,0.00,,,0.01,Wunderground v.1.15,2013-07-25 22:30:00,
2013-07-25 18:35:00,70.9,50.2,30.06,North,355,2.0,3.0,48,0.00,,,0.01,Wunderground v.1.15,2013-07-25 22:35:00,
2013-07-25 18:40:00,70.8,50.1,30.07,North,355,2.0,3.0,48,0.00,,,0.01,Wunderground v.1.15,2013-07-25 22:40:00,
2013-07-25 18:45:00,70.7,50.6,30.07,North,351,2.0,3.0,49,0.00,,,0.01,Wunderground v.1.15,2013-07-25 22:45:00,
2013-07-25 18:50:00,70.6,49.4,30.07,NNW,347,2.0,2.0,47,0.00,,,0.01,Wunderground v.1.15,2013-07-25 22:50:00,
2013-07-25 18:55:00,70.9,49.7,30.07,NNW,346,1.0,3.0,47,0.00,,,0.01,Wunderground v.1.15,2013-07-25 22:55:00,
2013-07-25 19:00:00,70.6,50.0,30.07,NNW,335,1.0,1.0,48,0.00,,,0.01,Wunderground v.1.15,2013-07-25 23:00:00,
2013-07-25 19:10:00,70.0,50.5,30.06,NNW,337,2.0,2.0,50,0.00,,,0.01,Wunderground v.1.15,2013-07-25 23:10:00,
2013-07-25 19:15:00,69.5,50.0,30.07,NE,53,1.0,2.0,50,0.00,,,0.01,Wunderground v.1.15,2013-07-25 23:15:00,
2013-07-25 19:25:00,68.7,50.4,30.07,NE,42,0.0,1.0,52,0.00,,,0.01,Wunderground v.1.15,2013-07-25 23:25:00,
2013-07-25 19:30:00,68.5,50.2,30.07,NE,43,0.0,0.0,52,0.00,,,0.01,Wunderground v.1.15,2013-07-25 23:30:00,
2013-07-25 19:35:00,68.2,50.4,30.06,North,355,0.0,0.0,53,0.00,,,0.01,Wunderground v.1.15,2013-07-25 23:35:00,
2013-07-25 19:40:00,68.0,50.2,30.06,North,355,1.0,1.0,53,0.00,,,0.01,Wunderground v.1.15,2013-07-25 23:40:00,
2013-07-25 19:50:00,67.4,49.7,30.06,North,355,1.0,1.0,53,0.00,,,0.01,Wunderground v.1.15,2013-07-25 23:50:00,
2013-07-25 19:55:00,67.1,49.9,30.06,North,355,0.0,1.0,54,0.00,,,0.01,Wunderground v.1.15,2013-07-25 23:55:00,
2013-07-25 20:00:00,66.9,49.7,30.06,North,355,0.0,0.0,54,0.00,,,0.01,Wunderground v.1.15,2013-07-26 00:00:00,
2013-07-25 20:05:00,66.6,50.4,30.07,North,355,0.0,0.0,56,0.00,,,0.01,Wunderground v.1.15,2013-07-26 00:05:00,
2013-07-25 20:10:00,66.3,50.6,30.07,North,355,0.0,0.0,57,0.00,,,0.01,Wunderground v.1.15,2013-07-26 00:10:00,
2013-07-25 20:15:00,66.0,50.8,30.07,North,355,0.0,0.0,58,0.00,,,0.01,Wunderground v.1.15,2013-07-26 00:15:00,
2013-07-25 20:20:00,65.6,51.3,30.07,North,355,0.0,0.0,60,0.00,,,0.01,Wunderground v.1.15,2013-07-26 00:20:00,
2013-07-25 20:30:00,64.6,51.3,30.07,North,355,0.0,0.0,62,0.00,,,0.01,Wunderground v.1.15,2013-07-26 00:30:00,
2013-07-25 20:35:00,64.0,51.1,30.07,North,355,0.0,0.0,63,0.00,,,0.01,Wunderground v.1.15,2013-07-26 00:35:00,
2013-07-25 20:40:00,63.4,51.4,30.06,North,355,0.0,0.0,65,0.00,,,0.01,Wunderground v.1.15,2013-07-26 00:40:00,
2013-07-25 20:45:00,62.9,51.4,30.06,North,355,0.0,0.0,66,0.00,,,0.01,Wunderground v.1.15,2013-07-26 00:45:00,
2013-07-25 20:50:00,62.2,51.5,30.06,North,355,0.0,0.0,68,0.00,,,0.01,Wunderground v.1.15,2013-07-26 00:50:00,
2013-07-25 20:55:00,61.6,51.3,30.06,North,355,0.0,0.0,69,0.00,,,0.01,Wunderground v.1.15,2013-07-26 00:55:00,
2013-07-25 21:00:00,61.0,51.1,30.06,North,355,0.0,0.0,70,0.00,,,0.01,Wunderground v.1.15,2013-07-26 01:00:00,
2013-07-25 21:05:00,60.5,50.7,30.06,North,355,0.0,0.0,70,0.00,,,0.01,Wunderground v.1.15,2013-07-26 01:05:00,
2013-07-25 21:15:00,59.7,50.7,30.06,North,355,0.0,0.0,72,0.00,,,0.01,Wunderground v.1.15,2013-07-26 01:15:00,
2013-07-25 21:20:00,59.2,50.2,30.07,North,355,0.0,0.0,72,0.00,,,0.01,Wunderground v.1.15,2013-07-26 01:20:00,
2013-07-25 21:25:00,59.0,50.4,30.07,North,355,0.0,0.0,73,0.00,,,0.01,Wunderground v.1.15,2013-07-26 01:25:00,
2013-07-25 21:30:00,58.6,50.3,30.07,North,355,0.0,0.0,74,0.00,,,0.01,Wunderground v.1.15,2013-07-26 01:30:00,
2013-07-25 21:35:00,58.3,50.4,30.07,North,355,0.0,0.0,75,0.00,,,0.01,Wunderground v.1.15,2013-07-26 01:35:00,
2013-07-25 21:40:00,58.0,50.5,30.07,North,355,0.0,0.0,76,0.00,,,0.01,Wunderground v.1.15,2013-07-26 01:40:00,
2013-07-25 21:45:00,57.7,50.5,30.07,North,355,0.0,0.0,77,0.00,,,0.01,Wunderground v.1.15,2013-07-26 01:45:00,
2013-07-25 21:55:00,57.1,50.3,30.07,North,355,0.0,0.0,78,0.00,,,0.01,Wunderground v.1.15,2013-07-26 01:55:00,
2013-07-25 22:00:00,56.9,50.5,30.07,North,355,0.0,0.0,79,0.00,,,0.01,Wunderground v.1.15,2013-07-26 02:00:00,
2013-07-25 22:05:00,56.6,50.5,30.07,North,355,0.0,0.0,80,0.00,,,0.01,Wunderground v.1.15,2013-07-26 02:05:00,
2013-07-25 22:10:00,56.4,50.6,30.08,North,355,0.0,0.0,81,0.00,,,0.01,Wunderground v.1.15,2013-07-26 02:10:00,
2013-07-25 22:15:00,56.1,50.7,30.08,North,355,0.0,0.0,82,0.00,,,0.01,Wunderground v.1.15,2013-07-26 02:15:00,
2013-07-25 22:20:00,56.0,50.6,30.08,North,355,0.0,0.0,82,0.00,,,0.01,Wunderground v.1.15,2013-07-26 02:20:00,
2013-07-25 22:25:00,55.8,50.7,30.08,North,355,0.0,0.0,83,0.00,,,0.01,Wunderground v.1.15,2013-07-26 02:25:00,
2013-07-25 22:35:00,55.5,50.7,30.08,North,355,0.0,0.0,84,0.00,,,0.01,Wunderground v.1.15,2013-07-26 02:35:00,
2013-07-25 22:40:00,55.3,50.9,30.08,North,355,0.0,0.0,85,0.00,,,0.01,Wunderground v.1.15,2013-07-26 02:40:00,
2013-07-25 22:50:00,55.1,51.0,30.08,North,355,0.0,0.0,86,0.00,,,0.01,Wunderground v.1.15,2013-07-26 02:50:00,
2013-07-25 22:55:00,55.0,50.9,30.08,North,355,0.0,0.0,86,0.00,,,0.01,Wunderground v.1.15,2013-07-26 02:55:00,
2013-07-25 23:00:00,55.0,51.2,30.09,North,355,0.0,0.0,87,0.00,,,0.01,Wunderground v.1.15,2013-07-26 03:00:00,
2013-07-25 23:10:00,54.9,51.1,30.09,North,355,0.0,0.0,87,0.00,,,0.01,Wunderground v.1.15,2013-07-26 03:10:00,
2013-07-25 23:15:00,54.9,51.1,30.09,North,355,0.0,0.0,87,0.00,,,0.01,Wunderground v.1.15,2013-07-26 03:15:00,
2013-07-25 23:20:00,54.7,50.9,30.09,North,355,0.0,0.0,87,0.00,,,0.01,Wunderground v.1.15,2013-07-26 03:20:00,
2013-07-25 23:25:00,54.6,51.1,30.09,North,355,0.0,0.0,88,0.00,,,0.01,Wunderground v.1.15,2013-07-26 03:25:00,
2013-07-25 23:30:00,54.4,50.9,30.09,North,355,0.0,0.0,88,0.00,,,0.01,Wunderground v.1.15,2013-07-26 03:30:00,
2013-07-25 23:35:00,54.3,50.8,30.09,North,355,0.0,0.0,88,0.00,,,0.01,Wunderground v.1.15,2013-07-26 03:35:00,
2013-07-25 23:40:00,54.1,50.6,30.09,North,355,0.0,0.0,88,0.00,,,0.01,Wunderground v.1.15,2013-07-26 03:40:00,
2013-07-25 23:50:00,53.9,50.7,30.09,North,355,0.0,0.0,89,0.00,,,0.01,Wunderground v.1.15,2013-07-26 03:50:00,